Wind_Speed
5 6 7 7 9 11 13 13 9 10 10 12 13 15 16 18 21 22 23 23 23 22 21 22 25 31 36 34 34 36 38 38 38 37 36 34 34 33
4 5 7 8 10 10 10 9 7 8 10 12 15 18 21 22 24 25 28 28 24 25 25 26 27 27 29 33 33 34 38 41 42 42 42 41 40 39
4 6 8 8 10 8 6 4 6 9 12 14 18 19 21 22 23 26 28 28 21 27 29 31 34 37 36 35 38 39 36 36 38 39 41 40 41 43
7 9 11 10 9 10 6 6 9 13 17 20 20 20 22 24 24 23 25 26 28 28 31 35 39 43 44 42 41 40 41 41 42 36 36 38 37 36
9 12 12 14 12 10 10 12 13 17 20 23 25 26 25 26 25 24 25 25 30 33 35 39 43 46 45 41 44 48 47 47 47 49 44 42 42 44
12 14 14 16 15 13 12 14 16 20 23 25 27 30 30 30 28 28 28 31 32 35 38 42 45 46 44 44 43 48 47 45 52 44 49 43 43 45
14 15 17 18 14 17 16 17 19 22 23 27 30 32 33 32 32 32 34 36 34 38 41 43 44 43 41 43 43 45 45 41 40 38 42 45 44 43
18 19 20 19 19 18 22 25 23 26 28 30 32 35 36 37 34 35 36 38 37 39 43 42 41 40 41 43 43 42 40 39 41 41 42 41 45 46
22 23 23 23 23 24 26 25 27 32 34 34 35 38 39 39 38 38 38 35 37 39 40 40 41 39 39 40 40 41 42 43 42 42 43 44 44 46
28 29 29 29 29 33 32 31 33 33 34 37 40 41 39 40 39 38 38 37 38 41 38 39 39 37 38 40 41 41 42 39 37 37 37 39 41 45
27 31 31 34 33 34 36 33 29 33 36 40 45 47 46 42 38 38 37 37 40 41 36 36 37 38 39 41 42 40 39 38 37 37 37 38 36 35
26 28 31 34 37 39 40 40 38 41 41 44 43 45 45 42 36 36 37 37 39 39 34 36 36 39 39 40 40 39 38 37 37 38 38 38 37 34
41 39 37 38 43 47 46 46 47 47 45 44 39 43 46 40 37 36 36 37 38 37 34 34 36 37 39 41 40 38 37 37 37 38 37 36 37 37
47 49 47 48 50 51 46 51 55 54 51 46 42 44 48 44 38 37 36 36 35 35 33 33 35 35 38 39 39 38 37 37 38 36 36 36 36 36
60 58 49 53 61 60 62 59 62 55 52 49 46 49 48 44 39 35 37 36 35 33 32 31 33 33 36 38 38 37 37 37 37 36 36 37 37 37
55 50 62 57 54 56 69 72 71 63 52 49 44 47 48 45 39 35 37 35 36 33 29 31 32 31 34 37 38 37 37 37 36 37 38 38 38 38
58 68 68 62 63 59 61 78 71 64 42 40 43 49 49 44 36 34 37 36 35 33 31 29 29 30 32 36 37 38 37 37 37 38 39 38 38 37
64 64 65 55 70 75 57 58 74 62 48 43 53 53 45 37 33 35 37 37 35 34 32 30 29 28 30 34 37 39 39 37 37 38 39 38 34 35
70 65 66 69 76 65 71 57 51 36 39 47 51 47 41 34 33 34 36 37 35 35 32 29 27 27 28 33 38 39 40 39 38 39 40 40 35 35
70 65 65 71 61 64 66 46 52 36 35 42 44 41 37 32 33 34 36 34 35 35 33 28 26 26 27 31 36 40 41 42 40 40 41 41 39 39
66 64 65 64 70 68 73 40 38 38 36 41 41 39 34 33 32 35 36 33 35 35 32 27 27 26 28 32 35 38 42 43 44 43 44 46 44 44
63 55 57 67 65 53 31 37 37 34 36 38 38 36 34 33 34 35 35 34 35 34 31 27 27 28 29 33 35 38 41 43 46 47 46 50 53 51
55 50 57 57 50 36 35 36 37 39 38 35 37 35 33 34 35 34 36 35 33 33 30 28 28 29 31 34 35 39 40 42 44 46 49 50 53 56
Wind_Direction
16 7 353 339 347 349 326 322 333 4 12 9 352 343 329 319 325 323 323 319 321 313 306 296 299 300 292 284 278 275 274 273 272 272 270 268 269 269
351 350 354 357 352 343 354 4 20 22 3 349 344 336 331 328 327 319 323 319 311 315 315 308 312 308 292 289 284 279 273 272 272 272 271 269 266 265
305 325 335 338 335 329 308 326 346 343 331 329 332 326 328 320 317 325 317 319 306 314 312 308 306 307 306 292 283 284 280 276 272 269 270 273 271 267
293 312 315 306 322 321 302 313 324 308 313 321 319 326 318 316 319 320 315 316 307 310 307 306 305 300 297 294 289 281 279 283 279 267 262 263 264 264
280 296 289 297 307 318 314 306 308 314 316 315 319 316 318 315 314 312 311 307 303 305 308 306 299 297 297 297 295 289 286 279 270 275 260 260 259 264
269 284 286 290 299 311 315 301 303 308 312 312 312 314 314 314 314 314 312 309 313 312 309 307 303 304 306 301 297 294 282 294 292 293 294 276 277 269
264 280 287 290 295 310 309 304 305 310 310 313 313 316 315 314 315 314 312 311 315 315 311 315 313 311 309 307 305 302 298 297 296 292 285 282 274 270
263 269 277 283 298 309 307 304 305 305 307 313 314 313 317 313 312 310 313 314 317 315 314 313 316 313 311 310 308 303 300 299 298 295 289 285 280 276
255 259 269 277 288 300 303 322 311 309 303 309 310 308 309 311 310 311 313 311 315 314 314 315 315 315 314 311 309 305 303 303 302 299 295 288 279 273
254 260 267 276 284 290 294 309 308 302 303 305 310 316 304 308 309 309 309 312 315 314 314 313 314 317 316 312 309 308 307 306 307 306 304 300 293 279
264 263 267 273 278 286 290 294 295 303 299 304 310 311 316 303 303 305 306 312 314 313 316 309 317 321 318 314 312 314 314 312 312 310 309 306 302 295
266 264 269 274 275 277 283 287 289 290 295 301 304 311 313 305 299 304 305 311 312 309 316 310 317 320 322 318 315 317 317 314 311 308 305 303 301 298
271 268 266 269 273 273 275 277 280 281 285 291 299 306 307 303 302 303 304 308 308 308 313 313 318 321 323 323 320 319 318 315 313 309 305 301 298 297
261 267 269 274 272 272 273 274 275 277 279 282 291 299 304 301 301 300 302 305 305 308 312 316 319 325 330 328 325 323 322 320 320 318 316 312 303 296
272 264 256 259 264 264 268 269 267 267 269 277 281 289 294 296 297 298 302 303 301 305 307 317 320 327 335 334 332 326 326 325 325 323 319 314 309 305
275 284 277 258 264 267 260 261 258 265 270 274 275 279 287 290 294 297 299 300 297 301 304 313 320 329 337 341 338 330 329 331 331 330 328 323 316 307
284 284 265 262 272 283 289 263 262 262 265 258 269 276 281 287 290 294 294 295 294 297 301 310 319 330 340 344 345 337 333 336 338 338 337 332 323 317
277 279 287 261 281 286 285 270 261 265 252 260 268 270 278 282 289 289 290 292 293 293 298 306 321 334 343 347 352 345 340 339 343 343 339 336 328 321
276 275 280 269 277 295 298 275 243 238 250 258 270 281 275 277 283 284 287 289 291 290 295 305 318 330 341 345 348 351 345 342 345 345 342 338 334 325
273 276 275 273 289 294 292 280 239 235 252 263 272 272 270 275 277 282 281 285 286 286 293 303 314 324 334 339 342 345 348 343 345 347 345 343 339 330
264 264 266 275 281 287 289 232 231 237 246 259 264 265 270 272 274 277 278 283 282 282 289 301 311 316 327 332 338 340 343 348 344 348 347 346 344 339
255 257 266 272 278 282 221 226 232 240 248 257 260 264 266 269 270 275 279 278 277 279 287 299 304 309 318 324 331 335 339 343 345 345 349 346 345 346
245 253 263 272 273 235 221 230 236 244 252 259 267 266 267 266 267 273 277 276 275 278 288 295 299 305 312 318 325 330 336 340 343 344 347 348 348 347
Height
5927 5927 5926 5925 5924 5920 5916 5915 5915 5915 5913 5912 5908 5905 5902 5899 5897 5892 5890 5888 5885 5882 5879 5878 5876 5872 5869 5866 5863 5861 5859 5858 5858 5858 5858 5858 5858 5858
5926 5926 5925 5924 5922 5919 5916 5915 5915 5915 5913 5909 5906 5903 5899 5896 5892 5890 5887 5883 5880 5876 5873 5870 5868 5864 5860 5856 5856 5855 5853 5850 5848 5848 5849 5849 5850 5850
5924 5924 5923 5922 5921 5918 5916 5915 5915 5914 5909 5906 5904 5900 5898 5895 5890 5887 5884 5879 5874 5872 5869 5865 5860 5856 5854 5851 5848 5845 5843 5842 5839 5838 5838 5837 5837 5838
5922 5921 5921 5920 5918 5917 5916 5915 5913 5909 5906 5904 5899 5898 5895 5891 5889 5885 5879 5876 5873 5868 5862 5859 5857 5851 5845 5841 5836 5833 5831 5829 5829 5827 5826 5826 5827 5827
5919 5919 5918 5917 5916 5914 5913 5911 5907 5905 5902 5898 5895 5892 5890 5886 5883 5878 5876 5871 5866 5864 5860 5854 5847 5841 5835 5832 5828 5825 5821 5816 5815 5813 5810 5812 5813 5815
5916 5915 5915 5914 5913 5911 5909 5906 5904 5901 5898 5895 5891 5888 5884 5880 5876 5872 5869 5865 5861 5856 5850 5844 5838 5832 5826 5820 5817 5815 5809 5805 5802 5799 5797 5798 5799 5799
5911 5910 5910 5908 5908 5907 5904 5902 5901 5898 5893 5890 5887 5883 5878 5873 5870 5867 5863 5857 5851 5849 5841 5833 5828 5823 5817 5811 5805 5800 5797 5793 5791 5789 5788 5785 5784 5786
5906 5905 5903 5903 5902 5901 5898 5896 5895 5892 5889 5886 5882 5877 5872 5867 5863 5859 5854 5849 5843 5838 5832 5824 5819 5814 5807 5800 5795 5790 5786 5784 5780 5778 5775 5772 5770 5769
5898 5898 5897 5896 5896 5894 5892 5890 5888 5885 5882 5880 5875 5869 5866 5862 5857 5853 5848 5842 5835 5829 5824 5815 5809 5806 5802 5794 5788 5782 5777 5773 5768 5763 5759 5757 5756 5755
5890 5890 5889 5890 5889 5885 5883 5882 5881 5878 5876 5873 5869 5864 5858 5854 5850 5847 5841 5834 5828 5823 5819 5811 5804 5800 5794 5785 5779 5775 5768 5763 5757 5752 5747 5743 5738 5737
5883 5881 5881 5881 5880 5878 5875 5874 5872 5870 5868 5864 5861 5856 5851 5847 5843 5838 5833 5827 5820 5816 5812 5804 5798 5790 5784 5777 5769 5765 5759 5753 5747 5741 5735 5731 5727 5723
5874 5873 5873 5871 5870 5868 5866 5864 5864 5862 5858 5855 5853 5848 5843 5839 5835 5831 5826 5819 5813 5808 5806 5799 5792 5783 5776 5767 5759 5754 5749 5743 5737 5730 5724 5720 5716 5712
5861 5862 5863 5862 5859 5857 5856 5856 5854 5850 5849 5847 5844 5841 5837 5833 5826 5822 5817 5811 5806 5802 5800 5794 5785 5775 5767 5761 5754 5746 5740 5732 5725 5719 5714 5710 5705 5701
5847 5848 5850 5852 5848 5846 5847 5846 5842 5838 5839 5836 5834 5833 5829 5826 5819 5814 5809 5803 5799 5796 5794 5787 5779 5770 5760 5754 5746 5739 5732 5723 5715 5708 5703 5698 5694 5690
5834 5832 5830 5833 5830 5830 5833 5831 5829 5827 5827 5827 5824 5823 5820 5817 5811 5805 5803 5797 5793 5790 5786 5780 5772 5762 5754 5747 5739 5732 5724 5715 5707 5699 5694 5689 5683 5679
5822 5818 5813 5811 5809 5809 5809 5807 5807 5811 5815 5817 5813 5812 5810 5807 5802 5797 5795 5791 5786 5782 5781 5774 5766 5757 5747 5742 5734 5727 5718 5709 5700 5691 5685 5680 5674 5668
5808 5801 5789 5793 5795 5794 5789 5786 5790 5797 5802 5803 5801 5800 5799 5797 5791 5789 5787 5782 5778 5775 5772 5768 5760 5749 5741 5736 5729 5720 5712 5703 5693 5684 5676 5671 5663 5657
5792 5788 5780 5766 5784 5782 5773 5769 5773 5783 5789 5789 5788 5788 5787 5785 5782 5780 5778 5775 5770 5768 5764 5759 5751 5742 5735 5732 5725 5717 5707 5698 5687 5677 5669 5663 5658 5650
5775 5777 5778 5775 5770 5769 5765 5757 5763 5770 5776 5777 5779 5776 5776 5774 5772 5771 5770 5766 5762 5760 5757 5751 5743 5735 5728 5723 5718 5712 5701 5691 5682 5672 5664 5656 5650 5645
5761 5762 5759 5758 5756 5755 5754 5752 5754 5759 5764 5767 5766 5764 5765 5762 5762 5761 5760 5756 5753 5752 5749 5742 5736 5730 5724 5719 5712 5704 5695 5685 5677 5668 5659 5651 5643 5635
5746 5746 5745 5744 5742 5738 5739 5744 5748 5751 5754 5755 5754 5753 5753 5752 5751 5751 5750 5747 5746 5744 5740 5733 5728 5723 5717 5712 5706 5699 5691 5682 5671 5661 5652 5643 5636 5627
5728 5728 5729 5731 5727 5724 5724 5734 5738 5739 5740 5741 5741 5741 5740 5739 5741 5742 5741 5737 5735 5734 5730 5724 5721 5716 5711 5706 5699 5694 5687 5676 5667 5656 5646 5635 5623 5615
5709 5713 5719 5720 5719 5721 5721 5724 5727 5728 5728 5727 5730 5730 5731 5730 5730 5731 5731 5729 5727 5725 5720 5716 5712 5709 5705 5701 5694 5688 5682 5672 5664 5654 5641 5631 5620 5608